Miami, FL

8:22 PM EST on February 24, 2017 (GMT -0500)
Miami International

Weather History for KMIA - February, 2013

Change the Weather History Date:

Monday, February 11, 2013

  Actual Average Record
Temperature  
Mean Temperature 75 °F 70 °F  
Max Temperature 80 °F 78 °F 87 °F (1942)
Min Temperature 69 °F 62 °F 40 °F (1947)
Degree Days  
Heating Degree Days 0 1  
Month to date heating degree days 0 11  
Since 1 July heating degree days 20 101  
Cooling Degree Days 10 6  
Month to date cooling degree days 65 60  
Year to date cooling degree days 334 211  
Growing Degree Days 24 (Base 50)    
Moisture  
Dew Point 63 °F    
Average Humidity 69    
Maximum Humidity 79    
Minimum Humidity 58    
Precipitation  
Precipitation 0.00 in 0.08 in 0.82 in (1981)
Month to date precipitation T 0.86  
Year to date precipitation 0.54 2.48  
Snow  
Snow 0.00 in - - ()
Month to date snowfall 0.0  
Since 1 July snowfall 0.0  
Snow Depth 0.00 in    
Sea Level Pressure  
Sea Level Pressure 30.17 in    
Wind  
Wind Speed 10 mph (ESE)    
Max Wind Speed 17 mph    
Max Gust Speed 24 mph    
Visibility 10 miles    
Events      
T = Trace of Precipitation, MM = Missing Value Source: NWS Daily Summary

Daily Weather History Graph

Daily Weather History Graph

Search for Another Location

Airport or City:

Trip Planner

Search our weather history database for the weather conditions in past years. The results will help you decide how hot, cold, wet, or windy it might be!

Date:

Astronomy

Feb. 11, 2013 Rise Set
Actual Time 6:58 AM EST 6:12 PM EST
Civil Twilight 6:35 AM EST 6:35 PM EST
Nautical Twilight 6:08 AM EST 7:02 PM EST
Astronomical Twilight 5:41 AM EST 7:29 PM EST
Moon 7:36 AM EST (2/11) 7:49 PM EST (2/11)
Length of Visible Light 12h 00m
Length of Day
11h 13m
Waxing Crescent, 3% of the Moon is Illuminated
Feb 11
Waxing Crescent
Feb 17
First Quarter
Feb 25
Full
Mar 4
Last Quarter
Mar 11
New

Hourly Weather History & Observations

Time (EST) Temp. Dew Point Humidity Pressure Visibility Wind Dir Wind Speed Gust Speed Precip Events Conditions
12:53 AM 72.0 °F 61.0 °F 68% 30.20 in 10.0 mi ESE 9.2 mph - N/A   Mostly Cloudy
1:53 AM 70.0 °F 61.0 °F 73% 30.19 in 10.0 mi ESE 6.9 mph - N/A   Scattered Clouds
2:53 AM 70.0 °F 62.1 °F 76% 30.18 in 10.0 mi ESE 8.1 mph - N/A   Mostly Cloudy
3:53 AM 70.0 °F 62.1 °F 76% 30.17 in 10.0 mi ESE 6.9 mph - N/A   Mostly Cloudy
4:53 AM 71.1 °F 62.1 °F 73% 30.17 in 10.0 mi ESE 8.1 mph - N/A   Mostly Cloudy
5:53 AM 70.0 °F 63.0 °F 78% 30.17 in 10.0 mi ESE 9.2 mph - N/A   Scattered Clouds
6:53 AM 71.1 °F 63.0 °F 75% 30.19 in 10.0 mi ESE 10.4 mph - N/A   Partly Cloudy
7:53 AM 73.0 °F 63.0 °F 71% 30.20 in 10.0 mi ESE 9.2 mph - N/A   Partly Cloudy
8:53 AM 75.0 °F 64.0 °F 69% 30.21 in 10.0 mi ESE 16.1 mph - N/A   Partly Cloudy
9:53 AM 77.0 °F 63.0 °F 62% 30.23 in 10.0 mi SE 13.8 mph 21.9 mph N/A   Mostly Cloudy
10:53 AM 77.0 °F 63.0 °F 62% 30.23 in 10.0 mi SE 11.5 mph - N/A   Mostly Cloudy
11:53 AM 79.0 °F 63.0 °F 58% 30.22 in 10.0 mi ESE 12.7 mph - N/A   Mostly Cloudy
12:53 PM 77.0 °F 63.0 °F 62% 30.20 in 10.0 mi SE 12.7 mph - N/A   Mostly Cloudy
1:53 PM 78.1 °F 63.0 °F 60% 30.17 in 10.0 mi ESE 11.5 mph 20.7 mph N/A   Mostly Cloudy
2:53 PM 78.1 °F 63.0 °F 60% 30.16 in 10.0 mi SE 11.5 mph - N/A   Scattered Clouds
3:53 PM 78.1 °F 62.1 °F 58% 30.14 in 10.0 mi SE 13.8 mph - N/A   Scattered Clouds
4:53 PM 75.9 °F 63.0 °F 64% 30.14 in 10.0 mi ESE 13.8 mph - N/A   Scattered Clouds
5:53 PM 73.9 °F 64.0 °F 71% 30.14 in 10.0 mi SE 11.5 mph 18.4 mph N/A   Scattered Clouds
6:53 PM 73.0 °F 64.0 °F 73% 30.13 in 10.0 mi SE 6.9 mph - N/A   Clear
7:53 PM 73.0 °F 64.9 °F 76% 30.14 in 10.0 mi SE 8.1 mph - N/A   Partly Cloudy
8:53 PM 73.0 °F 64.9 °F 76% 30.15 in 10.0 mi SE 8.1 mph - N/A   Partly Cloudy
9:53 PM 72.0 °F 64.9 °F 78% 30.15 in 10.0 mi ESE 4.6 mph - N/A   Clear
10:53 PM 73.0 °F 64.9 °F 76% 30.14 in 10.0 mi ESE 8.1 mph - N/A   Clear
11:53 PM 71.1 °F 64.0 °F 78% 30.13 in 10.0 mi SE 5.8 mph - N/A   Partly Cloudy